Location: *
(48.8780°N, 19.2358°E)
Time: 23:55:29
(UTC+00:00)

ATLAS 5 CENTAUR R/B - Pass Details

Date: 18 October 2019
Orbit: 563 x 1096 km, 63.3° (Epoch: 19 November)

Event Time Altitude Azimuth Distance (km) Brightness Sun altitude
Rises 17:42:55 0° 263° (W) 2,863 6.4 -19.5°
Reaches altitude 10° 17:45:23 10° 277° (W) 2,020 5.4 -19.9°
Maximum altitude 17:49:13 26° 334° (NNW) 1,353 3.6 -20.6°
Enters shadow 17:53:20 11° 30° (NNE) 2,225 4.2 -21.2°
